Volver al catálogo

BREEZE-M R/B

ActivoMEO
NORAD 36398·ROCKET BODY·🇷🇺 Russia

Lanzado Feb 12, 2010 desde Baikonur Cosmodrome

Loading…

Próximos Pases (próximas 24 horas)

TLE

ActualizadoSource: Space-Track

Época: Sep 14, 2026, 13:52 UTC

1 36398U 10006B   26257.57837143 -.00000208  00000-0  00000-0 0  9997
2 36398  14.0747  46.6030 0450109  65.2555 299.4045  0.86941927 52668

Sigue BREEZE-M R/B en tiempo real con AllMySat

Download on the App Store